Time,TemperatureF,DewpointF,PressureIn,WindDirection,WindDirectionDegrees,WindSpeedMPH,WindSpeedGustMPH,Humidity,HourlyPrecipIn,Conditions,Clouds,dailyrainin,SoftwareType,DateUTC
2013-04-16 00:13:00,27.6,24.0,25.80,ESE,117,7.0,9.0,86,0.00,,,0.00,weatherlink.com 1.10,2013-04-16 06:13:00,
2013-04-16 00:28:00,27.5,24.0,25.80,SE,131,5.0,7.0,86,0.00,,,0.00,weatherlink.com 1.10,2013-04-16 06:28:00,
2013-04-16 00:42:00,27.4,24.0,25.80,SE,132,4.0,5.0,86,0.00,,,0.00,weatherlink.com 1.10,2013-04-16 06:42:00,
2013-04-16 00:58:00,27.5,24.0,25.80,SE,132,4.0,6.0,86,0.00,,,0.00,weatherlink.com 1.10,2013-04-16 06:58:00,
2013-04-16 01:13:00,27.5,24.0,25.81,SE,146,5.0,7.0,85,0.00,,,0.00,weatherlink.com 1.10,2013-04-16 07:13:00,
2013-04-16 01:28:00,27.5,23.0,25.82,SE,139,5.0,8.0,84,0.00,,,0.00,weatherlink.com 1.10,2013-04-16 07:28:00,
2013-04-16 01:58:00,27.4,24.0,25.82,SSE,155,3.0,4.0,85,0.00,,,0.00,weatherlink.com 1.10,2013-04-16 07:58:00,
2013-04-16 02:13:00,27.4,24.0,25.81,SSE,150,3.0,5.0,86,0.00,,,0.00,weatherlink.com 1.10,2013-04-16 08:13:00,
2013-04-16 02:29:00,27.0,24.0,25.81,SE,139,5.0,6.0,88,0.00,,,0.00,weatherlink.com 1.10,2013-04-16 08:29:00,
2013-04-16 02:44:00,26.5,24.0,25.81,SE,134,5.0,7.0,90,0.00,,,0.00,weatherlink.com 1.10,2013-04-16 08:44:00,
2013-04-16 02:59:00,25.9,23.0,25.81,ESE,114,4.0,7.0,90,0.00,,,0.00,weatherlink.com 1.10,2013-04-16 08:59:00,
2013-04-16 03:14:00,25.3,23.0,25.82,East,98,5.0,11.0,92,0.00,,,0.00,weatherlink.com 1.10,2013-04-16 09:14:00,
2013-04-16 03:29:00,25.1,23.0,25.82,East,84,7.0,8.0,92,0.00,,,0.00,weatherlink.com 1.10,2013-04-16 09:29:00,
2013-04-16 03:44:00,25.4,24.0,25.82,SE,139,6.0,7.0,93,0.00,,,0.00,weatherlink.com 1.10,2013-04-16 09:44:00,
2013-04-16 03:59:00,25.5,24.0,25.82,SSE,158,7.0,8.0,93,0.00,,,0.00,weatherlink.com 1.10,2013-04-16 09:59:00,
2013-04-16 04:14:00,25.5,24.0,25.82,ESE,123,9.0,10.0,93,0.00,,,0.00,weatherlink.com 1.10,2013-04-16 10:14:00,
2013-04-16 04:29:00,25.3,24.0,25.82,SSE,151,7.0,10.0,93,0.00,,,0.00,weatherlink.com 1.10,2013-04-16 10:29:00,
2013-04-16 04:44:00,25.3,24.0,25.82,SE,129,7.0,7.0,93,0.00,,,0.00,weatherlink.com 1.10,2013-04-16 10:44:00,
2013-04-16 04:59:00,25.2,24.0,25.82,South,181,6.0,8.0,93,0.00,,,0.00,weatherlink.com 1.10,2013-04-16 10:59:00,
2013-04-16 05:14:00,25.0,23.0,25.82,SE,137,8.0,10.0,93,0.00,,,0.00,weatherlink.com 1.10,2013-04-16 11:14:00,
2013-04-16 05:29:00,25.0,24.0,25.82,East,98,5.0,8.0,94,0.00,,,0.00,weatherlink.com 1.10,2013-04-16 11:29:00,
2013-04-16 05:44:00,24.8,23.0,25.81,ENE,67,8.0,9.0,93,0.00,,,0.00,weatherlink.com 1.10,2013-04-16 11:44:00,
2013-04-16 05:59:00,24.2,23.0,25.81,East,86,12.0,13.0,94,0.00,,,0.00,weatherlink.com 1.10,2013-04-16 11:59:00,
2013-04-16 06:14:00,24.1,23.0,25.82,East,101,6.0,11.0,94,0.00,,,0.00,weatherlink.com 1.10,2013-04-16 12:14:00,
2013-04-16 06:29:00,24.0,23.0,25.82,East,92,7.0,11.0,94,0.00,,,0.00,weatherlink.com 1.10,2013-04-16 12:29:00,
2013-04-16 06:44:00,24.0,23.0,25.81,East,86,8.0,11.0,94,0.00,,,0.00,weatherlink.com 1.10,2013-04-16 12:44:00,
2013-04-16 06:59:00,24.0,23.0,25.81,East,97,8.0,11.0,94,0.00,,,0.00,weatherlink.com 1.10,2013-04-16 12:59:00,
2013-04-16 07:14:00,24.2,23.0,25.81,East,86,8.0,10.0,94,0.00,,,0.00,weatherlink.com 1.10,2013-04-16 13:14:00,
2013-04-16 07:29:00,24.3,23.0,25.82,East,92,8.0,10.0,94,0.00,,,0.00,weatherlink.com 1.10,2013-04-16 13:29:00,
2013-04-16 07:44:00,24.4,23.0,25.82,East,92,10.0,11.0,94,0.00,,,0.00,weatherlink.com 1.10,2013-04-16 13:44:00,
2013-04-16 07:59:00,24.5,23.0,25.82,East,98,9.0,11.0,94,0.00,,,0.00,weatherlink.com 1.10,2013-04-16 13:59:00,
2013-04-16 08:14:00,24.6,23.0,25.83,ESE,103,10.0,12.0,93,0.00,,,0.00,weatherlink.com 1.10,2013-04-16 14:14:00,
2013-04-16 08:29:00,24.7,23.0,25.83,East,86,11.0,14.0,93,0.00,,,0.00,weatherlink.com 1.10,2013-04-16 14:29:00,
2013-04-16 08:44:00,25.1,23.0,25.83,ESE,104,10.0,13.0,93,0.00,,,0.00,weatherlink.com 1.10,2013-04-16 14:44:00,
2013-04-16 09:00:00,25.3,24.0,25.83,East,99,12.0,13.0,93,0.00,,,0.00,weatherlink.com 1.10,2013-04-16 15:00:00,
2013-04-16 09:14:00,25.2,23.0,25.82,East,96,13.0,16.0,92,0.00,,,0.00,weatherlink.com 1.10,2013-04-16 15:14:00,
2013-04-16 09:29:00,25.2,23.0,25.83,East,94,11.0,15.0,92,0.00,,,0.00,weatherlink.com 1.10,2013-04-16 15:29:00,
2013-04-16 09:44:00,25.0,23.0,25.83,ENE,75,14.0,19.0,92,0.00,,,0.00,weatherlink.com 1.10,2013-04-16 15:44:00,
2013-04-16 09:59:00,25.2,23.0,25.83,East,101,16.0,17.0,92,0.00,,,0.00,weatherlink.com 1.10,2013-04-16 15:59:00,
2013-04-16 10:14:00,25.1,23.0,25.83,East,96,14.0,17.0,93,0.00,,,0.00,weatherlink.com 1.10,2013-04-16 16:14:00,
2013-04-16 10:29:00,25.1,23.0,25.83,East,97,15.0,18.0,93,0.00,,,0.00,weatherlink.com 1.10,2013-04-16 16:29:00,
2013-04-16 10:44:00,25.5,24.0,25.83,East,101,12.0,18.0,93,0.00,,,0.00,weatherlink.com 1.10,2013-04-16 16:44:00,
2013-04-16 10:59:00,25.7,24.0,25.83,ESE,103,13.0,17.0,93,0.00,,,0.00,weatherlink.com 1.10,2013-04-16 16:59:00,
2013-04-16 11:15:00,25.7,24.0,25.83,ESE,104,16.0,19.0,93,0.00,,,0.00,weatherlink.com 1.10,2013-04-16 17:15:00,
2013-04-16 11:29:00,25.9,24.0,25.83,SE,128,14.0,18.0,93,0.00,,,0.00,weatherlink.com 1.10,2013-04-16 17:29:00,
2013-04-16 11:44:00,26.2,25.0,25.83,ESE,113,15.0,19.0,93,0.00,,,0.00,weatherlink.com 1.10,2013-04-16 17:44:00,
2013-04-16 11:59:00,26.3,24.0,25.82,East,93,14.0,19.0,92,0.00,,,0.00,weatherlink.com 1.10,2013-04-16 17:59:00,
2013-04-16 12:14:00,26.5,25.0,25.82,ESE,111,18.0,21.0,92,0.00,,,0.00,weatherlink.com 1.10,2013-04-16 18:14:00,
2013-04-16 12:29:00,26.7,25.0,25.81,SE,140,16.0,21.0,92,0.00,,,0.00,weatherlink.com 1.10,2013-04-16 18:29:00,
2013-04-16 12:44:00,26.8,25.0,25.81,ESE,122,16.0,19.0,92,0.00,,,0.00,weatherlink.com 1.10,2013-04-16 18:44:00,
2013-04-16 12:59:00,26.7,25.0,25.81,SE,142,16.0,22.0,92,0.00,,,0.00,weatherlink.com 1.10,2013-04-16 18:59:00,
2013-04-16 13:14:00,26.7,25.0,25.80,SE,128,16.0,22.0,92,0.00,,,0.00,weatherlink.com 1.10,2013-04-16 19:14:00,
2013-04-16 13:29:00,26.7,25.0,25.80,South,169,11.0,24.0,92,0.00,,,0.00,weatherlink.com 1.10,2013-04-16 19:29:00,
2013-04-16 13:44:00,26.7,25.0,25.80,ESE,114,15.0,22.0,92,0.00,,,0.00,weatherlink.com 1.10,2013-04-16 19:44:00,
2013-04-16 13:59:00,26.7,25.0,25.80,ESE,113,18.0,20.0,93,0.00,,,0.00,weatherlink.com 1.10,2013-04-16 19:59:00,
2013-04-16 14:15:00,26.7,25.0,25.79,ESE,108,11.0,21.0,93,0.00,,,0.00,weatherlink.com 1.10,2013-04-16 20:15:00,
2013-04-16 14:30:00,26.8,25.0,25.79,ESE,122,14.0,23.0,93,0.00,,,0.00,weatherlink.com 1.10,2013-04-16 20:30:00,
2013-04-16 14:45:00,26.7,25.0,25.79,ESE,123,15.0,22.0,93,0.00,,,0.00,weatherlink.com 1.10,2013-04-16 20:45:00,
2013-04-16 15:00:00,26.9,25.0,25.79,SE,129,12.0,19.0,93,0.00,,,0.00,weatherlink.com 1.10,2013-04-16 21:00:00,
2013-04-16 15:15:00,27.0,25.0,25.78,SE,128,15.0,20.0,93,0.00,,,0.00,weatherlink.com 1.10,2013-04-16 21:15:00,
2013-04-16 15:30:00,27.0,25.0,25.78,ESE,120,15.0,19.0,93,0.00,,,0.00,weatherlink.com 1.10,2013-04-16 21:30:00,
2013-04-16 15:45:00,27.0,25.0,25.78,ESE,111,15.0,20.0,93,0.00,,,0.00,weatherlink.com 1.10,2013-04-16 21:45:00,
2013-04-16 16:00:00,27.1,25.0,25.79,East,98,15.0,19.0,93,0.00,,,0.00,weatherlink.com 1.10,2013-04-16 22:00:00,
2013-04-16 16:15:00,27.2,26.0,25.79,ESE,123,13.0,20.0,93,0.00,,,0.00,weatherlink.com 1.10,2013-04-16 22:15:00,
2013-04-16 16:30:00,27.4,26.0,25.80,SE,125,13.0,19.0,94,0.00,,,0.00,weatherlink.com 1.10,2013-04-16 22:30:00,
2013-04-16 16:45:00,27.5,26.0,25.80,SE,125,13.0,17.0,94,0.00,,,0.00,weatherlink.com 1.10,2013-04-16 22:45:00,
2013-04-16 17:00:00,27.6,26.0,25.81,ESE,113,14.0,16.0,95,0.00,,,0.00,weatherlink.com 1.10,2013-04-16 23:00:00,
2013-04-16 17:15:00,27.5,26.0,25.81,East,89,12.0,16.0,95,0.00,,,0.00,weatherlink.com 1.10,2013-04-16 23:15:00,
2013-04-16 17:30:00,27.6,26.0,25.81,East,95,12.0,15.0,95,0.00,,,0.00,weatherlink.com 1.10,2013-04-16 23:30:00,
2013-04-16 17:45:00,27.9,27.0,25.82,East,94,15.0,15.0,95,0.00,,,0.00,weatherlink.com 1.10,2013-04-16 23:45:00,
2013-04-16 18:00:00,27.9,27.0,25.82,East,92,11.0,14.0,95,0.00,,,0.00,weatherlink.com 1.10,2013-04-17 00:00:00,
2013-04-16 18:15:00,28.0,27.0,25.82,ESE,102,14.0,16.0,95,0.00,,,0.00,weatherlink.com 1.10,2013-04-17 00:15:00,
2013-04-16 18:30:00,27.7,27.0,25.82,East,84,14.0,16.0,95,0.00,,,0.00,weatherlink.com 1.10,2013-04-17 00:30:00,
2013-04-16 18:45:00,27.4,26.0,25.83,East,85,14.0,19.0,95,0.00,,,0.00,weatherlink.com 1.10,2013-04-17 00:45:00,
2013-04-16 19:00:00,27.3,26.0,25.82,East,91,14.0,17.0,95,0.00,,,0.00,weatherlink.com 1.10,2013-04-17 01:00:00,
2013-04-16 19:15:00,27.0,26.0,25.82,East,91,13.0,17.0,95,0.00,,,0.00,weatherlink.com 1.10,2013-04-17 01:15:00,
2013-04-16 19:30:00,27.1,26.0,25.82,ENE,68,12.0,18.0,95,0.00,,,0.00,weatherlink.com 1.10,2013-04-17 01:30:00,
2013-04-16 19:45:00,27.0,26.0,25.84,East,95,9.0,14.0,95,0.00,,,0.00,weatherlink.com 1.10,2013-04-17 01:45:00,
2013-04-16 20:00:00,26.9,26.0,25.83,ENE,71,10.0,17.0,95,0.00,,,0.00,weatherlink.com 1.10,2013-04-17 02:00:00,
2013-04-16 20:15:00,26.8,26.0,25.84,ENE,63,9.0,15.0,95,0.00,,,0.00,weatherlink.com 1.10,2013-04-17 02:15:00,
2013-04-16 20:30:00,26.7,26.0,25.84,NE,53,15.0,15.0,96,0.00,,,0.00,weatherlink.com 1.10,2013-04-17 02:30:00,
2013-04-16 20:45:00,26.7,26.0,25.84,ENE,71,11.0,15.0,96,0.00,,,0.00,weatherlink.com 1.10,2013-04-17 02:45:00,
2013-04-16 21:00:00,26.7,26.0,25.84,ENE,74,9.0,13.0,96,0.00,,,0.00,weatherlink.com 1.10,2013-04-17 03:00:00,
2013-04-16 21:15:00,26.7,26.0,25.84,East,89,13.0,14.0,96,0.00,,,0.00,weatherlink.com 1.10,2013-04-17 03:15:00,
2013-04-16 21:30:00,26.7,26.0,25.84,East,94,17.0,17.0,96,0.00,,,0.00,weatherlink.com 1.10,2013-04-17 03:30:00,
2013-04-16 21:45:00,26.6,26.0,25.84,ENE,75,14.0,18.0,96,0.00,,,0.00,weatherlink.com 1.10,2013-04-17 03:45:00,
2013-04-16 22:00:00,26.6,26.0,25.84,East,85,13.0,17.0,96,0.00,,,0.00,weatherlink.com 1.10,2013-04-17 04:00:00,
2013-04-16 22:15:00,26.7,26.0,25.85,ENE,58,7.0,12.0,96,0.00,,,0.00,weatherlink.com 1.10,2013-04-17 04:15:00,
2013-04-16 22:30:00,26.8,26.0,25.85,NE,53,6.0,12.0,96,0.00,,,0.00,weatherlink.com 1.10,2013-04-17 04:30:00,
2013-04-16 22:45:00,26.7,26.0,25.85,ENE,73,7.0,12.0,96,0.00,,,0.00,weatherlink.com 1.10,2013-04-17 04:45:00,
2013-04-16 23:00:00,26.7,26.0,25.85,ENE,78,9.0,13.0,96,0.00,,,0.00,weatherlink.com 1.10,2013-04-17 05:00:00,
2013-04-16 23:15:00,26.6,26.0,25.86,ENE,58,9.0,13.0,96,0.00,,,0.00,weatherlink.com 1.10,2013-04-17 05:15:00,
2013-04-16 23:30:00,26.5,26.0,25.86,ENE,74,11.0,14.0,96,0.00,,,0.00,weatherlink.com 1.10,2013-04-17 05:30:00,
2013-04-16 23:45:00,26.5,26.0,25.86,ENE,65,9.0,10.0,96,0.00,,,0.00,weatherlink.com 1.10,2013-04-17 05:45:00,